User: anonymous   Login
Location: Unspecified
(0.0000°N, 0.0000°E)
Time: 14:15:02
(UTC+00:00)
Language:

WISE - Orbit

View from above orbital plane
View from above orbital plane
View from above satellite
View from above satellite

Ground track
Ground track

The orbit data is extracted from the following two-line orbital elements,

1 36119U 09071A   19111.73029692 +.00000661 +00000-0 +25700-4 0  9999
2 36119 097.3784 147.3526 0004363 089.4122 270.7618 15.29532327519173
Epoch (UTC): 21 April 2019 17:31:37
Eccentricity: 0.0004363
inclination: 97.3784°
perigee height: 474 km
apogee height: 480 km
right ascension of ascending node: 147.3526°
argument of perigee: 89.4122°
revolutions per day: 15.29532327
mean anomaly at epoch: 270.7618°
orbit number at epoch: 51917

The dashed part of the orbit path shows where the satellite is in the earth's shadow,  

DLR